Weather History for Tappahannock, VA

Change the Weather History Date:

Wednesday, January 2, 2013

  Actual Average (KRIC) Record (KRIC)
Temperature  
Mean Temperature 37 °F 38 °F  
Max Temperature 43 °F 47 °F 69 °F (2000)
Min Temperature 32 °F 29 °F 10 °F (1928)
Degree Days  
Heating Degree Days 28 27  
Month to date heating degree days 54  
Since 1 July heating degree days 1473  
Cooling Degree Days 0 0  
Month to date cooling degree days 0  
Year to date cooling degree days 0  
Moisture  
Dew Point 30 °F    
Average Humidity 75    
Maximum Humidity 97    
Minimum Humidity 54    
Precipitation  
Precipitation 0.00 in 0.09 in 1.36 in (1979)
Month to date precipitation 0.18  
Year to date precipitation 0.18  
Snow  
Snow 0.00 in 0.10 in 1.60 in (1918)
Month to date snowfall 0.2  
Since 1 July snowfall 2.5  
Snow Depth -    
Sea Level Pressure  
Sea Level Pressure 30.10 in    
Wind  
Wind Speed 2 mph (North)    
Max Wind Speed 7 mph    
Max Gust Speed -    
Visibility 9 miles    
Events Rain    
T = Trace of Precipitation, MM = Missing Value Source: NWS Daily Summary

Daily Weather History Graph

Daily Weather History Graph

Search for Another Location

Airport:

Trip Planner

Search our weather history database for the weather conditions in past years. The results will help you decide how hot, cold, wet, or windy it might be!

Date:

Astronomy

Jan. 02, 2013 Rise Set
Actual Time 7:23 AM EST 5:00 PM EST
Civil Twilight 6:54 AM EST 5:29 PM EST
Nautical Twilight 6:21 AM EST 6:02 PM EST
Astronomical Twilight 5:49 AM EST 6:34 PM EST
Moon 10:24 PM EST (1/2) 10:09 AM EST (1/2)
Length of Visible Light 10h 35m
Length of Day
9h 36m
Waning Gibbous, 75% of the Moon is Illuminated
Jan 2
Waning Gibbous
Jan 4
Last Quarter
Jan 11
New
Jan 18
First Quarter
Jan 26
Full

Hourly Weather History & Observations

Time (EST) Temp. Windchill Dew Point Humidity Pressure Visibility Wind Dir Wind Speed Gust Speed Precip Events Conditions
12:15 AM 39.9 °F 36.7 °F 32.9 °F 76% 30.02 in 10.0 mi ENE 4.6 mph - N/A Rain Light Rain
12:35 AM 39.2 °F 37.0 °F 33.6 °F 80% 30.00 in 10.0 mi East 3.5 mph - N/A Rain Light Rain
12:55 AM 38.5 °F - 34.7 °F 86% 30.00 in 10.0 mi Calm Calm - N/A Rain Light Rain
1:15 AM 38.5 °F - 35.4 °F 89% 30.01 in 10.0 mi Calm Calm - N/A   Light Drizzle
1:35 AM 37.8 °F - 36.5 °F 95% 29.99 in 7.0 mi Calm Calm - N/A Rain Rain
1:55 AM 37.8 °F - 36.5 °F 95% 29.99 in 7.0 mi Calm Calm - N/A   Drizzle
2:15 AM 38.3 °F 35.9 °F 36.0 °F 91% 30.00 in 10.0 mi SE 3.5 mph - N/A   Drizzle
2:35 AM 37.8 °F - 36.5 °F 95% 30.01 in 7.0 mi Calm Calm - N/A   Drizzle
2:55 AM 37.9 °F - 36.7 °F 95% 30.01 in 7.0 mi Calm Calm - N/A Rain Light Rain
3:15 AM 38.3 °F 35.9 °F 34.9 °F 87% 30.02 in 7.0 mi NNW 3.5 mph - N/A Rain Light Rain
3:35 AM 37.6 °F 34.0 °F 34.9 °F 90% 30.01 in 7.0 mi North 4.6 mph - N/A Rain Light Rain
3:55 AM 36.9 °F 34.3 °F 34.7 °F 92% 30.01 in 7.0 mi North 3.5 mph - N/A Rain Rain
4:15 AM 36.7 °F - 35.1 °F 94% 30.01 in 10.0 mi Calm Calm - N/A   Light Drizzle
4:35 AM 36.5 °F - 34.9 °F 94% 30.01 in 7.0 mi Calm Calm - N/A   Light Drizzle
4:55 AM 36.5 °F - 35.2 °F 95% 30.01 in 7.0 mi Calm Calm - N/A Rain Light Rain
5:15 AM 36.5 °F - 34.9 °F 94% 30.00 in 7.0 mi Calm Calm - N/A Rain Light Rain
5:35 AM 36.5 °F - 34.9 °F 94% 30.01 in 10.0 mi Calm Calm - N/A   Mostly Cloudy
5:55 AM 36.1 °F - 35.1 °F 96% 30.02 in 7.0 mi Calm Calm - N/A   Overcast
6:15 AM 36.1 °F - 35.2 °F 97% 30.04 in 5.0 mi Calm Calm - N/A   Mostly Cloudy
6:35 AM 36.1 °F - 35.2 °F 97% 30.05 in 5.0 mi Calm Calm - N/A   Light Drizzle
6:55 AM 36.5 °F - 35.2 °F 95% 30.06 in 7.0 mi Calm Calm - N/A   Light Drizzle
7:15 AM 36.1 °F - 34.7 °F 94% 30.06 in 7.0 mi Calm Calm - N/A Rain Light Rain
7:35 AM 36.1 °F 32.3 °F 34.2 °F 93% 30.07 in 7.0 mi North 4.6 mph - N/A   Overcast
7:55 AM 36.1 °F - 34.0 °F 92% 30.08 in 7.0 mi Calm Calm - N/A   Overcast
8:15 AM 36.3 °F 33.7 °F 33.8 °F 91% 30.08 in 7.0 mi North 3.5 mph - N/A   Overcast
8:35 AM 36.5 °F - 33.4 °F 89% 30.09 in 7.0 mi Calm Calm - N/A   Overcast
8:55 AM 36.1 °F - 33.1 °F 89% 30.11 in 10.0 mi Calm Calm - N/A   Mostly Cloudy
9:15 AM 37.2 °F - 33.4 °F 86% 30.12 in 10.0 mi Calm Calm - N/A   Scattered Clouds
9:35 AM 37.6 °F 34.0 °F 32.2 °F 81% 30.11 in 10.0 mi North 4.6 mph - N/A   Clear
9:55 AM 38.5 °F 34.1 °F 31.8 °F 77% 30.12 in 10.0 mi North 5.8 mph - N/A   Scattered Clouds
10:15 AM 39.4 °F 36.1 °F 29.8 °F 69% 30.13 in 10.0 mi NE 4.6 mph - N/A   Scattered Clouds
10:35 AM 39.0 °F 34.8 °F 28.8 °F 67% 30.13 in 10.0 mi North 5.8 mph - N/A   Mostly Cloudy
10:55 AM 38.7 °F 35.2 °F 28.9 °F 68% 30.13 in 10.0 mi North 4.6 mph - N/A   Overcast
11:15 AM 38.7 °F 35.2 °F 27.5 °F 64% 30.12 in 10.0 mi NNW 4.6 mph - N/A   Overcast
11:35 AM 39.6 °F 35.4 °F 28.4 °F 64% 30.11 in 10.0 mi North 5.8 mph - N/A   Mostly Cloudy
11:55 AM 40.1 °F 38.0 °F 27.7 °F 61% 30.10 in 10.0 mi North 3.5 mph - N/A   Scattered Clouds
12:15 PM 39.9 °F 36.7 °F 27.1 °F 60% 30.09 in 10.0 mi NNW 4.6 mph - N/A   Scattered Clouds
12:35 PM 40.3 °F 38.2 °F 27.3 °F 60% 30.09 in 10.0 mi North 3.5 mph - N/A   Clear
12:55 PM 40.1 °F 35.3 °F 27.7 °F 61% 30.09 in 10.0 mi North 6.9 mph - N/A   Clear
1:15 PM 40.5 °F 37.3 °F 26.2 °F 57% 30.08 in 10.0 mi WNW 4.6 mph - N/A   Scattered Clouds
1:35 PM 40.3 °F 38.2 °F 26.2 °F 57% 30.09 in 10.0 mi WSW 3.5 mph - N/A   Scattered Clouds
1:55 PM 42.4 °F 38.8 °F 27.3 °F 55% 30.09 in 10.0 mi WNW 5.8 mph - N/A   Scattered Clouds
2:15 PM 42.3 °F 38.6 °F 27.1 °F 55% 30.09 in 10.0 mi WNW 5.8 mph - N/A   Clear
2:35 PM 41.5 °F 38.6 °F 27.1 °F 57% 30.10 in 10.0 mi North 4.6 mph - N/A   Scattered Clouds
2:55 PM 41.2 °F 39.2 °F 25.7 °F 54% 30.09 in 10.0 mi North 3.5 mph - N/A   Scattered Clouds
3:15 PM 40.1 °F 36.9 °F 25.9 °F 57% 30.10 in 10.0 mi North 4.6 mph - N/A   Scattered Clouds
3:35 PM 41.0 °F 37.1 °F 26.1 °F 55% 30.11 in 10.0 mi NNW 5.8 mph - N/A   Clear
3:55 PM 40.3 °F 37.1 °F 25.9 °F 56% 30.12 in 10.0 mi NNW 4.6 mph - N/A   Clear
4:15 PM 39.4 °F 34.5 °F 25.9 °F 58% 30.13 in 10.0 mi NNW 6.9 mph - N/A   Clear
4:35 PM 38.7 °F 35.2 °F 25.2 °F 58% 30.14 in 10.0 mi NNW 4.6 mph - N/A   Clear
4:55 PM 38.1 °F - 24.6 °F 58% 30.15 in 10.0 mi Calm Calm - N/A   Clear
5:15 PM 36.9 °F 34.3 °F 24.6 °F 61% 30.16 in 10.0 mi NNW 3.5 mph - N/A   Clear
5:35 PM 35.8 °F - 25.2 °F 65% 30.17 in 10.0 mi Calm Calm - N/A   Clear
5:55 PM 36.5 °F - 23.7 °F 60% 30.18 in 10.0 mi Calm Calm - N/A   Clear
6:15 PM 35.6 °F 32.8 °F 24.3 °F 63% 30.17 in 10.0 mi NNE 3.5 mph - N/A   Clear
6:35 PM 35.6 °F - 23.9 °F 62% 30.18 in 10.0 mi Calm Calm - N/A   Clear
6:55 PM 34.5 °F - 24.8 °F 68% 30.19 in 10.0 mi Calm Calm - N/A   Clear
7:15 PM 35.2 °F - 23.9 °F 63% 30.19 in 10.0 mi Calm Calm - N/A   Clear
7:35 PM 33.3 °F - 25.5 °F 73% 30.19 in 10.0 mi Calm Calm - N/A   Clear
7:55 PM 32.4 °F - 27.5 °F 82% 30.18 in 10.0 mi Calm Calm - N/A   Clear
8:15 PM 32.7 °F - 27.0 °F 79% 30.19 in 10.0 mi Calm Calm - N/A   Clear
8:55 PM 33.8 °F - 24.6 °F 69% 30.21 in 10.0 mi Calm Calm - N/A   Clear
9:15 PM 34.0 °F - 23.7 °F 66% 30.22 in 10.0 mi Calm Calm - N/A   Clear
9:35 PM 33.4 °F - 23.9 °F 68% 30.21 in 10.0 mi Calm Calm - N/A   Clear
9:55 PM 33.4 °F - 23.5 °F 67% 30.21 in 10.0 mi Calm Calm - N/A   Clear
10:15 PM 32.9 °F - 24.4 °F 71% 30.23 in 10.0 mi Calm Calm - N/A   Clear
10:35 PM 32.0 °F - 26.1 °F 79% 30.23 in 10.0 mi Calm Calm - N/A   Clear
10:55 PM 32.0 °F - 23.7 °F 71% 30.21 in 10.0 mi Calm Calm - N/A   Clear
11:15 PM 32.2 °F - 23.2 °F 69% 30.22 in 10.0 mi Calm Calm - N/A   Clear
11:35 PM 32.0 °F - 24.3 °F 73% 30.23 in 10.0 mi Calm Calm - N/A   Clear
11:55 PM 32.9 °F 29.8 °F 21.0 °F 62% 30.22 in 10.0 mi North 3.5 mph - N/A   Clear